Terminal Aerodrome Forecast
Issued by NWS Wakefield, VA

Home | Current Version | Previous Version | Text Only | Print | Product List | Glossary On
Versions: 1 2 3 4 5 6 7 8 9 10 11 12 13 14 15 16 17 18 19 20 21 22 23 24 25 26 27 28 29 30
000
FTUS41 KAKQ 241517 AAA
TAFORF
TAF AMD
KORF 241517Z 2415/2512 08010KT P6SM OVC012
      TEMPO 2415/2418 OVC009
     FM242100 10010KT P6SM OVC010
     FM250000 11011KT P6SM -SHRA OVC015
     FM250500 15011KT P6SM -SHRA OVC010=

USA.gov is the U.S. government's official web portal to all federal, state and local government web resources and services.